Location: Sceptre
(50.8619°N, 109.2670°W)
Time: 21:21:08
(UTC+00:00)

Envisat - Pass Details

Date: 25 January 2022
Orbit: 764 x 765 km, 98.2° (Epoch: 21 May)

Event Time Altitude Azimuth Distance (km) Brightness Sun altitude
Rises 13:12:54 0° 9° (N) 3,244 6.3 -17.1°
Reaches altitude 10° 13:15:20 10° 2° (N) 2,313 5.4 -16.7°
Maximum altitude 13:20:01 38° 295° (WNW) 1,151 3.4 -16.0°
Drops below altitude 10° 13:24:41 10° 228° (SW) 2,300 5.1 -15.3°
Sets 13:27:06 0° 221° (SW) 3,222 5.9 -14.9°
